Regional Weather Roundup
Issued by NWS New Orleans/Baton Rouge, LA

Home | Current Version | Previous Version | Text Only | Print | Product List | Glossary On
Versions: 1 2 3 4 5 6 7 8 9 10 11 12 13 14 15 16 17 18 19 20 21 22 23 24 25 26 27 28 29 30 31 32 33 34 35 36 37 38 39 40 41 42 43 44 45 46 47 48 49 50
000
ASUS44 KLIX 061511
RWRLIX
NEW ORLEANS REGIONAL WEATHER ROUNDUP
NATIONAL WEATHER SERVICE NEW ORLEANS LA
1000 AM CDT FRI MAY 06 2016

NOTE: "FAIR" INDICATES FEW OR NO CLOUDS BELOW 12,000 FEET WITH NO
      SIGNIFICANT WEATHER AND/OR OBSTRUCTIONS TO VISIBILITY.
      SKY/WX - SKY CONDITION AND SIGNIFICANT WEATHER.
      TMP - AIR TEMPERATURE.     DP    - DEWPOINT TEMPERATURE.
      RH  - RELATIVE HUMIDITY.   PRES  - PRESSURE.
      HI  - HEAT INDEX.          WCI   - WIND CHILL INDEX.

*  THESE STATIONS ARE NOT NWS OR FAA STATIONS AND ARE NOT UNDER
   NWS QUALITY CONTROL.

LAZ038-040-048-061>063-065>067-069-061600-
SOUTHEAST LOUISIANA

CITY           SKY/WX    TMP DP  RH WIND       PRES   REMARKS
N.O. AUDUBON     N/A     73  47  38 MISG        N/A
N.O. INTL ARPT MOSUNNY   70  47  43 NE13      30.08R
N.O. LAKEFRONT SUNNY     66  51  58 N8        30.09R
N.O. DOWNTOWN*   N/A     69  43  38 NE8G16    30.08R
RESERVE*         N/A     71  47  43 E6        30.09R
SLIDELL        SUNNY     66  49  54 N9        30.08R
BATON ROUGE    SUNNY     68  47  46 CALM      30.10R
BOOTHVILLE     SUNNY     69  49  48 N8        30.06R
BELLE CHASSE   MOSUNNY   70  47  43 NE7       30.07R
BOGALUSA*        N/A     65  46  50 N7        30.11R
GALLIANO*      SUNNY     71  51  49 NE5       30.07R
NEW ROADS*       N/A     67  46  46 NE3       30.10S
GONZALES*        N/A     68  47  46 N3        30.09R
HAMMOND*       SUNNY     68  45  42 N3        30.09R
HOUMA*         SUNNY     66  52  59 NE7       30.08R
PORT FOURCHON* SUNNY     70  46  43 NE12      30.07R

$$

MSZ070-080>082-061600-
SOUTHERN MISSISSIPPI

CITY           SKY/WX    TMP DP  RH WIND       PRES   REMARKS
MCCOMB         SUNNY     63  45  51 N9        30.10R
GULFPORT       SUNNY     66  45  46 NE7       30.06R
BILOXI         SUNNY     64  47  52 N6        30.06R
PASCAGOULA     SUNNY     66  46  48 N8        30.05S
STENNIS ARPT*  SUNNY     64  43  45 N9        30.08R

$$

COASTAL OBSERVATIONS
LAKE AND NEARSHORE STATIONS

STATION/POSITION TIME  TEMP    WIND        PRES    WAVE
                       AIR SEA DIR/SP/G            HT/PER
                 (UTC) (F)     (DEG/KT/KT) (MB)    (FT/S)
PASCAGOULA       1400   63      10/ 10/ 13 1016.8
WAVELAND YACHT   1400   60 69   30/  9/ 11 1017.8
GRAND ISLE       1400   69 74   40/  7/ 10 1017.1
SOUTHWEST PASS   1400           30/ 13/ 15   N/A
NEW CANAL        1400   64 72   50/ 12/ 14 1017.1
SHELL BEACH      1400   63 71   20/ 11/ 13 1017.7

OFFSHORE STATIONS

STATION/POSITION TIME  TEMP    WIND        PRES    WAVE
                       AIR SEA DIR/SP/G            HT/PER
                 (UTC) (F)     (DEG/KT/KT) (MB)    (FT/S)
64 S DAUPHIN ISL 1400   67 74  360/ 12/ 16 1016.4

$$




USA.gov is the U.S. government's official web portal to all federal, state and local government web resources and services.